"SCET";"TARGET";"ELECTRON_DENSITY";"ERROR_FLAG";"ELECTRON_DENSITY_ERROR";"FREQ_FCE";"MEASURED_VALUE";"MEASURED_ITEM";"FREQ_PLASMA";"FREQ_UPPER_HYBRID";"FREQ_R_EQUALS_ZERO";"FREQ_L_EQUALS_ZERO";"ORBIT_NUMBER";"SATURN_RADIUS";"SATURN_IAU_LONGITUDE";"SATURN_SLS4_S_LONGITUDE";"SATURN_SLS4_N_LONGITUDE";"SATURN_SLS5_S_LONGITUDE";"SATURN_SLS5_N_LONGITUDE";"SATURN_LOCAL_TIME";"SATURN_KRONOGRAPHIC_LATITUDE";"SATURN_MAGNETIC_LATITUDE";"SATURN_L";"SATURN_L_OFFSET";"SATURN_SOLAR_EQUATORIAL_X";"SATURN_SOLAR_EQUATORIAL_Y";"SATURN_SOLAR_EQUATORIAL_Z";"SATURN_ALTITUDE";"ENCELADUS_ENCOUNTER_NUMBER";"ENCELADUS_RADIUS";"ENCELADUS_COROTATIONAL_X";"ENCELADUS_COROTATIONAL_Y";"ENCELADUS_COROTATIONAL_Z";"ENCELADUS_TRUE_ANOMALY";"ENCELADUS_PERIAPSIS_TIME";"JUPITER_RADIUS";"JUPITER_SYSTEMIII_LONGITUDE";"JUPITER_MAGNETIC_LATITUDE";"JUPITER_MAGNETIC_LOCAL_TIME";"JUPITER_L";"IO_PHASE";"EARTH_RADIUS";"EARTH_MAGNETIC_LATITUDE";"EARTH_LOCAL_TIME";"EARTH_L"
"[UTC]";"[0=Saturn, 1=Enceladus, 2=Jupiter, 3=Earth]";"[cm-3]";"[0=automated, 1=manual]";"[normalized density error]";"[Hz]";"[Hz]";"[0=upper hybrid frequency, 1=plasma frequency cutoff]";"[Hz]";"[Hz]";"[Hz]";"[Hz}";"[0, A, B, C, 3, 4, ... , 292, 293]";"[Rs where 1Rs=60268km]";"[degrees]";"[degrees]";"[degrees]";"[degrees]";"[degrees]";"[hours]";"[degrees]";"[degrees where offset=2293km north]";"[Rs where 1Rs=60268km]";"[Rs where 1Rs=60268km and offset=2293km north]";"[Rs where 1Rs=60268km]";"[Rs where 1Rs=60268km]";"[Rs where 1Rs=60268km]";"[km where ellipsoid a,b=60268km and c=54364km]";"[E0, E1, E2, ... , E21, E22]";"[Renc where 1Renc=252.1km]";"[Renc where 1Renc=252.1km]";"[Renc where 1Renc=252.1km]";"[Renc where 1Renc=252.1km]";"[degrees]";"[UTC]";"[Rj where 1Rj=71492km]";"[degrees]";"[degrees using JRM09 model]";"[hours using JRM09 model]";"[Rj where 1Rj=71492km]";"[degrees]";"[Re where 1Re=6378.1366km]";"[degrees]";"[hours]";"[Re where 1Re=6378.1366km]"
2008-10-24T09:00:51.670Z;0;9.6550e+00;0;     0.225;  9067.855;  29339.115; 0;  27902.646;  29339.115;  32802.535;  23734.680; 90;   4.080; 234.949;  26.694; 240.916; 322.044; 225.957;  22.245;  13.903;  13.383;   4.330;   4.067;  -3.550;   1.756;   0.980;;;;;;;;;;;;;;;;;;
2008-10-24T09:00:59.670Z;0;9.6910e+00;0;     0.223;  9067.855;  29388.352; 0;  27954.412;  29388.352;  32853.633;  23785.777; 90;   4.080; 235.015;  26.760; 240.983; 322.109; 226.023;  22.246;  13.874;  13.355;   4.329;   4.067;  -3.550;   1.756;   0.978;;;;;;;;;;;;;;;;;;
2008-10-24T09:01:23.669Z;0;9.6330e+00;0;     0.181;  9067.855;  29309.869; 0;  27871.893;  29309.869;  32772.180;  23704.324; 90;   4.079; 235.215;  26.957; 241.185; 322.304; 226.224;  22.247;  13.789;  13.269;   4.324;   4.066;  -3.552;   1.755;   0.972;;;;;;;;;;;;;;;;;;
2008-10-24T09:01:39.669Z;0;9.2960e+00;0;     0.166;  9067.855;  28842.514; 0;  27380.004;  28842.514;  32286.785;  23218.930; 90;   4.078; 235.349;  27.088; 241.320; 322.434; 226.357;  22.248;  13.733;  13.212;   4.322;   4.065;  -3.552;   1.754;   0.968;;;;;;;;;;;;;;;;;;
2008-10-24T09:01:47.669Z;0;9.5370e+00;0;     0.178;  9067.855;  29177.131; 0;  27732.273;  29177.131;  32634.381;  23566.525; 90;   4.078; 235.416;  27.153; 241.387; 322.499; 226.424;  22.249;  13.704;  13.184;   4.320;   4.065;  -3.553;   1.753;   0.966;;;;;;;;;;;;;;;;;;
2008-10-24T09:02:11.669Z;0;1.0300e+01;0;     0.182;  9060.771;  30214.322; 0;  28823.734;  30214.322;  33707.980;  24647.209; 90;   4.077; 235.616;  27.350; 241.588; 322.694; 226.624;  22.251;  13.619;  13.099;   4.316;   4.064;  -3.554;   1.752;   0.960;;;;;;;;;;;;;;;;;;
2008-10-24T09:02:19.669Z;0;1.0100e+01;0;     0.178;  9060.771;  29944.006; 0;  28540.250;  29944.006;  33427.969;  24367.197; 90;   4.076; 235.682;  27.416; 241.656; 322.759; 226.691;  22.251;  13.591;  13.070;   4.315;   4.064;  -3.554;   1.751;   0.958;;;;;;;;;;;;;;;;;;
2008-10-24T09:02:27.669Z;0;1.0210e+01;0;     0.179;  9060.771;  30086.201; 0;  28689.404;  30086.201;  33575.289;  24514.516; 90;   4.076; 235.749;  27.481; 241.723; 322.824; 226.757;  22.252;  13.563;  13.042;   4.313;   4.063;  -3.555;   1.751;   0.956;;;;;;;;;;;;;;;;;;
2008-10-24T09:02:43.669Z;0;9.9560e+00;0;     0.146;  9060.771;  29748.611; 0;  28335.178;  29748.611;  33225.449;  24164.678; 90;   4.075; 235.883;  27.612; 241.857; 322.953; 226.891;  22.253;  13.506;  12.985;   4.311;   4.063;  -3.555;   1.750;   0.952;;;;;;;;;;;;;;;;;;
2008-10-24T09:02:51.669Z;0;9.6080e+00;0;     0.117;  9060.771;  29273.051; 0;  27835.479;  29273.051;  32732.129;  23671.357; 90;   4.075; 235.949;  27.678; 241.924; 323.018; 226.957;  22.253;  13.477;  12.956;   4.309;   4.062;  -3.556;   1.750;   0.950;;;;;;;;;;;;;;;;;;
2008-10-24T09:03:07.669Z;0;9.4940e+00;0;     0.126;  9053.604;  29113.121; 0;  27669.588;  29113.121;  32564.242;  23510.639; 90;   4.074; 236.083;  27.809; 242.059; 323.148; 227.090;  22.255;  13.421;  12.899;   4.306;   4.062;  -3.557;   1.749;   0.945;;;;;;;;;;;;;;;;;;
2008-10-24T09:03:31.668Z;0;1.0180e+01;0;     0.166;  9053.604;  30050.791; 0;  28654.533;  30050.791;  33536.699;  24483.098; 90;   4.073; 236.283;  28.006; 242.261; 323.343; 227.290;  22.256;  13.335;  12.814;   4.302;   4.061;  -3.558;   1.747;   0.939;;;;;;;;;;;;;;;;;;
2008-10-24T09:03:39.668Z;0;9.6430e+00;0;     0.133;  9053.604;  29318.393; 0;  27885.488;  29318.393;  32777.328;  23723.727; 90;   4.073; 236.350;  28.071; 242.328; 323.408; 227.357;  22.257;  13.307;  12.785;   4.301;   4.060;  -3.558;   1.747;   0.937;;;;;;;;;;;;;;;;;;
2008-10-24T09:03:47.668Z;0;1.0090e+01;0;     0.156;  9053.604;  29925.381; 0;  28522.984;  29925.381;  33406.770;  24353.168; 90;   4.073; 236.416;  28.137; 242.395; 323.473; 227.423;  22.257;  13.279;  12.757;   4.300;   4.060;  -3.559;   1.746;   0.935;;;;;;;;;;;;;;;;;;
2008-10-24T09:03:55.668Z;0;9.7930e+00;0;     0.182;  9053.604;  29523.969; 0;  28101.549;  29523.969;  32990.621;  23937.016; 90;   4.072; 236.483;  28.202; 242.462; 323.538; 227.489;  22.258;  13.250;  12.728;   4.298;   4.060;  -3.559;   1.746;   0.933;;;;;;;;;;;;;;;;;;
2008-10-24T09:04:03.668Z;0;1.0030e+01;0;     0.141;  9046.408;  29849.775; 0;  28445.941;  29849.775;  33326.520;  24280.111; 90;   4.072; 236.550;  28.268; 242.529; 323.603; 227.556;  22.258;  13.222;  12.700;   4.297;   4.059;  -3.559;   1.745;   0.931;;;;;;;;;;;;;;;;;;
2008-10-24T09:04:11.668Z;0;1.0280e+01;0;     0.152;  9046.408;  30182.398; 0;  28794.785;  30182.398;  33671.086;  24624.678; 90;   4.072; 236.617;  28.334; 242.597; 323.668; 227.622;  22.259;  13.193;  12.671;   4.296;   4.059;  -3.560;   1.745;   0.929;;;;;;;;;;;;;;;;;;
2008-10-24T09:04:19.668Z;0;1.0130e+01;0;     0.152;  9046.408;  29982.811; 0;  28585.512;  29982.811;  33464.363;  24417.957; 90;   4.071; 236.683;  28.399; 242.664; 323.733; 227.689;  22.260;  13.165;  12.642;   4.294;   4.059;  -3.560;   1.745;   0.927;;;;;;;;;;;;;;;;;;
2008-10-24T09:04:27.668Z;0;9.9910e+00;0;     0.147;  9046.408;  29791.879; 0;  28385.182;  29791.879;  33266.516;  24220.107; 90;   4.071; 236.750;  28.465; 242.731; 323.798; 227.755;  22.260;  13.136;  12.614;   4.293;   4.059;  -3.560;   1.744;   0.925;;;;;;;;;;;;;;;;;;
2008-10-24T09:04:43.668Z;0;1.0250e+01;0;     0.140;  9046.408;  30133.961; 0;  28744.010;  30133.961;  33620.926;  24574.520; 90;   4.070; 236.883;  28.596; 242.866; 323.928; 227.888;  22.261;  13.079;  12.557;   4.290;   4.058;  -3.561;   1.743;   0.921;;;;;;;;;;;;;;;;;;
2008-10-24T09:04:51.668Z;0;1.0320e+01;0;     0.163;  9046.408;  30236.744; 0;  28851.746;  30236.744;  33727.355;  24680.949; 90;   4.070; 236.950;  28.661; 242.933; 323.993; 227.954;  22.262;  13.051;  12.528;   4.289;   4.058;  -3.562;   1.743;   0.919;;;;;;;;;;;;;;;;;;
2008-10-24T09:04:59.668Z;0;1.0340e+01;0;     0.155;  9046.408;  30261.896; 0;  28878.104;  30261.896;  33753.398;  24706.990; 90;   4.070; 237.017;  28.727; 243.000; 324.058; 228.021;  22.262;  13.022;  12.500;   4.288;   4.057;  -3.562;   1.742;   0.917;;;;;;;;;;;;;;;;;;
2008-10-24T09:05:07.668Z;0;1.0340e+01;0;     0.160;  9038.876;  30260.350; 0;  28878.842;  30260.350;  33749.777;  24710.902; 90;   4.070; 237.084;  28.793; 243.067; 324.123; 228.087;  22.263;  12.994;  12.471;   4.286;   4.057;  -3.562;   1.742;   0.915;;;;;;;;;;;;;;;;;;
2008-10-24T09:05:15.668Z;0;1.0230e+01;0;     0.147;  9038.876;  30116.387; 0;  28727.957;  30116.387;  33600.719;  24561.842; 90;   4.069; 237.150;  28.858; 243.135; 324.188; 228.153;  22.263;  12.965;  12.442;   4.285;   4.057;  -3.563;   1.741;   0.913;;;;;;;;;;;;;;;;;;
2008-10-24T09:05:23.668Z;0;1.0350e+01;0;     0.155;  9038.876;  30272.822; 0;  28891.910;  30272.822;  33762.691;  24723.814; 90;   4.069; 237.217;  28.924; 243.202; 324.253; 228.219;  22.264;  12.937;  12.414;   4.284;   4.056;  -3.563;   1.741;   0.911;;;;;;;;;;;;;;;;;;
2008-10-24T09:05:31.668Z;0;1.0430e+01;0;     0.168;  9038.876;  30377.094; 0;  29001.146;  30377.094;  33870.621;  24831.744; 90;   4.069; 237.284;  28.989; 243.269; 324.318; 228.286;  22.265;  12.909;  12.385;   4.282;   4.056;  -3.564;   1.740;   0.909;;;;;;;;;;;;;;;;;;
2008-10-24T09:05:39.668Z;0;1.0620e+01;0;     0.145;  9038.876;  30622.871; 0;  29258.484;  30622.871;  34124.914;  25086.039; 90;   4.068; 237.350;  29.055; 243.336; 324.383; 228.352;  22.265;  12.880;  12.357;   4.281;   4.056;  -3.564;   1.740;   0.907;;;;;;;;;;;;;;;;;;
2008-10-24T09:05:47.668Z;0;1.0890e+01;0;     0.168;  9038.876;  30988.174; 0;  29640.607;  30988.174;  34502.617;  25463.740; 90;   4.068; 237.417;  29.121; 243.403; 324.448; 228.418;  22.266;  12.852;  12.328;   4.280;   4.055;  -3.564;   1.739;   0.905;;;;;;;;;;;;;;;;;;
2008-10-24T09:05:55.667Z;0;1.0560e+01;0;     0.144;  9038.876;  30543.855; 0;  29175.775;  30543.855;  34043.176;  25004.301; 90;   4.068; 237.484;  29.186; 243.471; 324.513; 228.484;  22.266;  12.823;  12.299;   4.278;   4.055;  -3.565;   1.739;   0.903;;;;;;;;;;;;;;;;;;
2008-10-24T09:06:03.667Z;0;1.0850e+01;0;     0.166;  9031.568;  30930.248; 0;  29582.275;  30930.248;  34440.746;  25409.178; 90;   4.067; 237.551;  29.252; 243.538; 324.578; 228.551;  22.267;  12.794;  12.271;   4.277;   4.055;  -3.565;   1.739;   0.901;;;;;;;;;;;;;;;;;;
2008-10-24T09:06:11.667Z;0;1.0760e+01;0;     0.160;  9031.568;  30806.832; 0;  29453.211;  30806.832;  34313.168;  25281.598; 90;   4.067; 237.617;  29.317; 243.605; 324.643; 228.617;  22.267;  12.766;  12.242;   4.276;   4.055;  -3.565;   1.738;   0.898;;;;;;;;;;;;;;;;;;
2008-10-24T09:06:19.667Z;0;1.0520e+01;0;     0.139;  9031.568;  30492.516; 0;  29124.291;  30492.516;  33988.086;  24956.518; 90;   4.067; 237.684;  29.383; 243.672; 324.708; 228.683;  22.268;  12.737;  12.214;   4.274;   4.054;  -3.566;   1.738;   0.896;;;;;;;;;;;;;;;;;;
2008-10-24T09:06:27.667Z;0;1.0870e+01;0;     0.138;  9031.568;  30955.193; 0;  29608.357;  30955.193;  34466.527;  25434.961; 90;   4.066; 237.751;  29.448; 243.740; 324.773; 228.749;  22.268;  12.709;  12.185;   4.273;   4.054;  -3.566;   1.737;   0.894;;;;;;;;;;;;;;;;;;
2008-10-24T09:06:35.667Z;0;1.0670e+01;0;     0.152;  9031.568;  30697.051; 0;  29338.365;  30697.051;  34199.652;  25168.084; 90;   4.066; 237.818;  29.514; 243.807; 324.838; 228.815;  22.269;  12.680;  12.156;   4.272;   4.054;  -3.567;   1.737;   0.892;;;;;;;;;;;;;;;;;;
2008-10-24T09:06:43.667Z;0;1.0750e+01;0;     0.130;  9031.568;  30802.098; 0;  29448.260;  30802.098;  34308.270;  25276.703; 90;   4.066; 237.884;  29.580; 243.874; 324.903; 228.881;  22.270;  12.652;  12.128;   4.271;   4.053;  -3.567;   1.736;   0.890;;;;;;;;;;;;;;;;;;
2008-10-24T09:06:51.667Z;0;1.0640e+01;0;     0.138;  9031.568;  30653.297; 0;  29292.582;  30653.297;  34154.402;  25122.834; 90;   4.065; 237.951;  29.645; 243.941; 324.968; 228.947;  22.270;  12.623;  12.099;   4.269;   4.053;  -3.567;   1.736;   0.888;;;;;;;;;;;;;;;;;;
2008-10-24T09:06:59.667Z;0;1.0710e+01;0;     0.139;  9031.568;  30744.930; 0;  29388.459;  30744.930;  34249.164;  25217.594; 90;   4.065; 238.018;  29.711; 244.009; 325.033; 229.013;  22.271;  12.595;  12.070;   4.268;   4.053;  -3.568;   1.735;   0.886;;;;;;;;;;;;;;;;;;
2008-10-24T09:07:07.667Z;0;1.0750e+01;0;     0.146;  9024.344;  30791.529; 0;  29439.420;  30791.529;  34295.375;  25271.031; 90;   4.065; 238.084;  29.776; 244.076; 325.098; 229.079;  22.271;  12.566;  12.042;   4.267;   4.052;  -3.568;   1.735;   0.884;;;;;;;;;;;;;;;;;;
2008-10-24T09:07:15.667Z;0;1.0750e+01;0;     0.137;  9024.344;  30797.363; 0;  29445.523;  30797.363;  34301.406;  25277.062; 90;   4.064; 238.151;  29.842; 244.143; 325.163; 229.145;  22.272;  12.538;  12.013;   4.265;   4.052;  -3.568;   1.734;   0.882;;;;;;;;;;;;;;;;;;
2008-10-24T09:07:23.667Z;0;1.0650e+01;0;     0.142;  9024.344;  30664.346; 0;  29306.369;  30664.346;  34163.867;  25139.523; 90;   4.064; 238.218;  29.908; 244.210; 325.228; 229.211;  22.272;  12.509;  11.985;   4.264;   4.052;  -3.569;   1.734;   0.880;;;;;;;;;;;;;;;;;;
2008-10-24T09:07:31.667Z;0;1.0820e+01;0;     0.134;  9024.344;  30882.652; 0;  29534.715;  30882.652;  34389.574;  25365.230; 90;   4.064; 238.285;  29.973; 244.278; 325.293; 229.277;  22.273;  12.481;  11.956;   4.263;   4.052;  -3.569;   1.733;   0.878;;;;;;;;;;;;;;;;;;
2008-10-24T09:07:39.667Z;0;1.0880e+01;0;     0.143;  9024.344;  30958.385; 0;  29613.895;  30958.385;  34467.848;  25443.504; 90;   4.063; 238.351;  30.039; 244.345; 325.358; 229.343;  22.273;  12.452;  11.927;   4.262;   4.051;  -3.569;   1.733;   0.876;;;;;;;;;;;;;;;;;;
2008-10-24T09:07:47.667Z;0;1.0820e+01;0;     0.125;  9024.344;  30882.012; 0;  29534.045;  30882.012;  34388.910;  25364.566; 90;   4.063; 238.418;  30.104; 244.412; 325.423; 229.409;  22.274;  12.423;  11.899;   4.260;   4.051;  -3.570;   1.733;   0.874;;;;;;;;;;;;;;;;;;
2008-10-24T09:07:55.667Z;0;1.0840e+01;0;     0.139;  9024.344;  30908.729; 0;  29561.980;  30908.729;  34416.527;  25392.182; 90;   4.063; 238.485;  30.170; 244.479; 325.488; 229.475;  22.275;  12.395;  11.870;   4.259;   4.051;  -3.570;   1.732;   0.872;;;;;;;;;;;;;;;;;;
2008-10-24T09:08:03.667Z;0;1.0870e+01;0;     0.144;  9017.035;  30943.740; 0;  29600.812;  30943.740;  34450.711;  25433.674; 90;   4.062; 238.552;  30.236; 244.546; 325.553; 229.541;  22.275;  12.366;  11.841;   4.258;   4.050;  -3.571;   1.732;   0.870;;;;;;;;;;;;;;;;;;
2008-10-24T09:08:11.666Z;0;1.0790e+01;0;     0.129;  9017.035;  30842.824; 0;  29495.303;  30842.824;  34346.406;  25329.371; 90;   4.062; 238.618;  30.301; 244.614; 325.618; 229.607;  22.276;  12.338;  11.813;   4.256;   4.050;  -3.571;   1.731;   0.868;;;;;;;;;;;;;;;;;;
2008-10-24T09:08:19.666Z;0;1.0780e+01;0;     0.124;  9017.035;  30828.760; 0;  29480.596;  30828.760;  34331.867;  25314.832; 90;   4.062; 238.685;  30.367; 244.681; 325.683; 229.673;  22.276;  12.309;  11.784;   4.255;   4.050;  -3.571;   1.731;   0.866;;;;;;;;;;;;;;;;;;
2008-10-24T09:08:27.666Z;0;1.0800e+01;0;     0.126;  9017.035;  30859.676; 0;  29512.924;  30859.676;  34363.824;  25346.789; 90;   4.062; 238.752;  30.432; 244.748; 325.748; 229.739;  22.277;  12.280;  11.755;   4.254;   4.049;  -3.572;   1.730;   0.864;;;;;;;;;;;;;;;;;;
2008-10-24T09:08:35.666Z;0;1.0860e+01;0;     0.127;  9017.035;  30930.172; 0;  29586.629;  30930.172;  34436.688;  25419.652; 90;   4.061; 238.819;  30.498; 244.815; 325.813; 229.805;  22.277;  12.252;  11.726;   4.253;   4.049;  -3.572;   1.730;   0.862;;;;;;;;;;;;;;;;;;
2008-10-24T09:08:43.666Z;0;1.0910e+01;0;     0.134;  9017.035;  31006.445; 0;  29666.357;  31006.445;  34515.508;  25498.473; 90;   4.061; 238.885;  30.564; 244.883; 325.878; 229.871;  22.278;  12.223;  11.698;   4.251;   4.049;  -3.572;   1.729;   0.860;;;;;;;;;;;;;;;;;;
2008-10-24T09:08:51.666Z;0;1.0890e+01;0;     0.132;  9017.035;  30976.533; 0;  29635.092;  30976.533;  34484.598;  25467.562; 90;   4.061; 238.952;  30.629; 244.950; 325.943; 229.937;  22.278;  12.195;  11.669;   4.250;   4.049;  -3.573;   1.729;   0.858;;;;;;;;;;;;;;;;;;
2008-10-24T09:08:59.666Z;0;1.0880e+01;0;     0.124;  9017.035;  30964.223; 0;  29622.225;  30964.223;  34471.875;  25454.842; 90;   4.060; 239.019;  30.695; 245.017; 326.008; 230.002;  22.279;  12.166;  11.640;   4.249;   4.048;  -3.573;   1.728;   0.855;;;;;;;;;;;;;;;;;;
2008-10-24T09:09:07.666Z;0;1.0890e+01;0;     0.125;  9009.784;  30973.359; 0;  29633.980;  30973.359;  34479.328;  25469.545; 90;   4.060; 239.086;  30.760; 245.084; 326.073; 230.068;  22.280;  12.137;  11.612;   4.248;   4.048;  -3.573;   1.728;   0.853;;;;;;;;;;;;;;;;;;
2008-10-24T09:09:15.666Z;0;1.0860e+01;0;     0.131;  9009.784;  30929.689; 0;  29588.334;  30929.689;  34434.199;  25424.416; 90;   4.060; 239.152;  30.826; 245.152; 326.138; 230.134;  22.280;  12.109;  11.583;   4.247;   4.048;  -3.574;   1.727;   0.851;;;;;;;;;;;;;;;;;;
2008-10-24T09:09:23.666Z;0;1.0870e+01;0;     0.115;  9009.784;  30944.980; 0;  29604.316;  30944.980;  34450.004;  25440.219; 90;   4.059; 239.219;  30.892; 245.219; 326.203; 230.200;  22.281;  12.080;  11.554;   4.245;   4.047;  -3.574;   1.727;   0.849;;;;;;;;;;;;;;;;;;
2008-10-24T09:09:31.666Z;0;1.0900e+01;0;     0.125;  9009.784;  30992.678; 0;  29654.172;  30992.678;  34499.289;  25489.506; 90;   4.059; 239.286;  30.957; 245.286; 326.268; 230.265;  22.281;  12.052;  11.525;   4.244;   4.047;  -3.575;   1.727;   0.847;;;;;;;;;;;;;;;;;;
2008-10-24T09:09:39.666Z;0;1.0960e+01;0;     0.130;  9009.784;  31068.756; 0;  29733.674;  31068.756;  34577.895;  25568.109; 90;   4.059; 239.353;  31.023; 245.353; 326.333; 230.331;  22.282;  12.023;  11.497;   4.243;   4.047;  -3.575;   1.726;   0.845;;;;;;;;;;;;;;;;;;
2008-10-24T09:09:47.666Z;0;1.0920e+01;0;     0.125;  9009.784;  31007.129; 0;  29669.273;  31007.129;  34514.223;  25504.438; 90;   4.058; 239.419;  31.088; 245.421; 326.398; 230.397;  22.282;  11.994;  11.468;   4.242;   4.047;  -3.575;   1.726;   0.843;;;;;;;;;;;;;;;;;;
2008-10-24T09:09:55.666Z;0;1.1050e+01;0;     0.128;  9009.784;  31183.539; 0;  29853.592;  31183.539;  34696.465;  25686.678; 90;   4.058; 239.486;  31.154; 245.488; 326.463; 230.463;  22.283;  11.966;  11.439;   4.240;   4.046;  -3.576;   1.725;   0.841;;;;;;;;;;;;;;;;;;
2008-10-24T09:10:03.666Z;0;1.1050e+01;0;     0.138;  9002.616;  31182.117; 0;  29854.268;  31182.117;  34693.016;  25690.398; 90;   4.058; 239.553;  31.220; 245.555; 326.528; 230.529;  22.283;  11.937;  11.410;   4.239;   4.046;  -3.576;   1.725;   0.839;;;;;;;;;;;;;;;;;;
2008-10-24T09:10:11.666Z;0;1.1020e+01;0;     0.128;  9002.616;  31134.396; 0;  29804.422;  31134.396;  34643.727;  25641.109; 90;   4.057; 239.619;  31.285; 245.622; 326.594; 230.596;  22.284;  11.908;  11.382;   4.238;   4.046;  -3.576;   1.724;   0.837;;;;;;;;;;;;;;;;;;
2008-10-24T09:10:19.666Z;0;1.1180e+01;0;     0.159;  9002.616;  31345.123; 0;  30024.484;  31345.123;  34861.340;  25858.723; 90;   4.057; 239.686;  31.351; 245.690; 326.660; 230.663;  22.285;  11.880;  11.353;   4.237;   4.045;  -3.577;   1.724;   0.835;;;;;;;;;;;;;;;;;;
2008-10-24T09:10:27.666Z;0;1.1100e+01;0;     0.120;  9002.616;  31242.289; 0;  29917.111;  31242.289;  34755.156;  25752.539; 90;   4.057; 239.753;  31.416; 245.757; 326.725; 230.730;  22.285;  11.851;  11.324;   4.236;   4.045;  -3.577;   1.723;   0.833;;;;;;;;;;;;;;;;;;
2008-10-24T09:10:35.665Z;0;1.1110e+01;0;     0.127;  9002.616;  31253.689; 0;  29929.016;  31253.689;  34766.930;  25764.312; 90;   4.057; 239.820;  31.482; 245.824; 326.791; 230.797;  22.286;  11.822;  11.295;   4.234;   4.045;  -3.577;   1.723;   0.831;;;;;;;;;;;;;;;;;;
2008-10-24T09:10:43.665Z;0;1.0980e+01;0;     0.117;  9002.616;  31084.695; 0;  29752.498;  31084.695;  34592.387;  25589.770; 90;   4.056; 239.886;  31.548; 245.891; 326.857; 230.864;  22.286;  11.794;  11.267;   4.233;   4.045;  -3.578;   1.722;   0.829;;;;;;;;;;;;;;;;;;
2008-10-24T09:10:51.665Z;0;1.1120e+01;0;     0.131;  9002.616;  31272.660; 0;  29948.826;  31272.660;  34786.520;  25783.902; 90;   4.056; 239.953;  31.613; 245.959; 326.923; 230.931;  22.287;  11.765;  11.238;   4.232;   4.044;  -3.578;   1.722;   0.827;;;;;;;;;;;;;;;;;;
2008-10-24T09:10:59.665Z;0;1.1630e+01;0;     0.144;  9002.616;  31920.102; 0;  30624.268;  31920.102;  35454.621;  26452.004; 90;   4.056; 240.020;  31.679; 246.026; 326.988; 230.998;  22.287;  11.736;  11.209;   4.231;   4.044;  -3.578;   1.721;   0.825;;;;;;;;;;;;;;;;;;
2008-10-24T09:11:07.665Z;0;1.1730e+01;0;     0.133;  8995.729;  32038.855; 0;  30750.043;  32038.855;  35575.121;  26579.393; 90;   4.055; 240.087;  31.744; 246.093; 327.054; 231.065;  22.288;  11.708;  11.180;   4.229;   4.044;  -3.579;   1.721;   0.823;;;;;;;;;;;;;;;;;;
2008-10-24T09:11:15.665Z;0;1.1790e+01;0;     0.127;  8995.729;  32120.693; 0;  30835.301;  32120.693;  35659.484;  26663.756; 90;   4.055; 240.153;  31.810; 246.160; 327.120; 231.133;  22.288;  11.679;  11.152;   4.228;   4.043;  -3.579;   1.720;   0.821;;;;;;;;;;;;;;;;;;
2008-10-24T09:11:23.665Z;0;1.1700e+01;0;     0.118;  8995.729;  32004.406; 0;  30714.148;  32004.406;  35539.605;  26543.877; 90;   4.055; 240.220;  31.876; 246.228; 327.186; 231.200;  22.289;  11.650;  11.123;   4.227;   4.043;  -3.580;   1.720;   0.819;;;;;;;;;;;;;;;;;;
2008-10-24T09:11:31.665Z;0;1.1770e+01;0;     0.126;  8995.729;  32092.494; 0;  30805.926;  32092.494;  35630.418;  26634.689; 90;   4.054; 240.287;  31.941; 246.295; 327.252; 231.267;  22.290;  11.622;  11.094;   4.226;   4.043;  -3.580;   1.719;   0.817;;;;;;;;;;;;;;;;;;
2008-10-24T09:11:39.665Z;0;1.1740e+01;0;     0.121;  8995.729;  32058.037; 0;  30770.027;  32058.037;  35594.895;  26599.168; 90;   4.054; 240.354;  32.007; 246.362; 327.318; 231.334;  22.290;  11.593;  11.065;   4.225;   4.043;  -3.580;   1.719;   0.815;;;;;;;;;;;;;;;;;;
2008-10-24T09:11:47.665Z;0;1.1870e+01;0;     0.128;  8995.729;  32215.139; 0;  30933.672;  32215.139;  35756.828;  26761.100; 90;   4.054; 240.420;  32.072; 246.429; 327.384; 231.401;  22.291;  11.564;  11.036;   4.224;   4.042;  -3.581;   1.719;   0.812;;;;;;;;;;;;;;;;;;
2008-10-24T09:11:55.665Z;0;1.1880e+01;0;     0.117;  8995.729;  32237.814; 0;  30957.285;  32237.814;  35780.195;  26784.469; 90;   4.054; 240.487;  32.138; 246.497; 327.449; 231.469;  22.291;  11.535;  11.008;   4.222;   4.042;  -3.581;   1.718;   0.810;;;;;;;;;;;;;;;;;;
2008-10-24T09:12:03.665Z;0;1.1870e+01;0;     0.125;  8988.952;  32212.873; 0;  30933.281;  32212.873;  35752.566;  26763.615; 90;   4.053; 240.554;  32.204; 246.564; 327.515; 231.536;  22.292;  11.507;  10.979;   4.221;   4.042;  -3.581;   1.718;   0.808;;;;;;;;;;;;;;;;;;
2008-10-24T09:12:11.665Z;0;1.1880e+01;0;     0.136;  8988.952;  32228.896; 0;  30949.969;  32228.896;  35769.078;  26780.127; 90;   4.053; 240.621;  32.269; 246.631; 327.581; 231.603;  22.292;  11.478;  10.950;   4.220;   4.041;  -3.582;   1.717;   0.806;;;;;;;;;;;;;;;;;;
2008-10-24T09:12:19.665Z;0;1.2030e+01;0;     0.130;  8988.952;  32415.188; 0;  31143.910;  32415.188;  35961.020;  26972.068; 90;   4.053; 240.687;  32.335; 246.698; 327.647; 231.671;  22.293;  11.449;  10.921;   4.219;   4.041;  -3.582;   1.717;   0.804;;;;;;;;;;;;;;;;;;
2008-10-24T09:12:27.665Z;0;1.1960e+01;0;     0.119;  8988.952;  32334.660; 0;  31060.086;  32334.660;  35878.059;  26889.107; 90;   4.052; 240.754;  32.400; 246.766; 327.713; 231.738;  22.293;  11.420;  10.892;   4.218;   4.041;  -3.582;   1.716;   0.802;;;;;;;;;;;;;;;;;;
2008-10-24T09:12:35.665Z;0;1.1920e+01;0;     0.122;  8988.952;  32276.830; 0;  30999.879;  32276.830;  35818.473;  26829.521; 90;   4.052; 240.821;  32.466; 246.833; 327.779; 231.805;  22.294;  11.392;  10.863;   4.216;   4.041;  -3.583;   1.716;   0.800;;;;;;;;;;;;;;;;;;
2008-10-24T09:12:43.665Z;0;1.1820e+01;0;     0.113;  8988.952;  32161.266; 0;  30879.535;  32161.266;  35699.379;  26710.428; 90;   4.052; 240.888;  32.532; 246.900; 327.845; 231.873;  22.295;  11.363;  10.835;   4.215;   4.040;  -3.583;   1.715;   0.798;;;;;;;;;;;;;;;;;;